Baker City, OR

9:54 PM PDT on September 24, 2016 (GMT -0700)
Baker City Municipal

Weather History for KBKE - November, 2012

Change the Weather History Date:

Friday, November 2, 2012

  Actual Average Record
Temperature  
Mean Temperature 42 °F 38 °F  
Max Temperature 59 °F 51 °F 66 °F (1981)
Min Temperature 25 °F 25 °F 3 °F (2002)
Degree Days  
Heating Degree Days 23 27  
Month to date heating degree days 46 53  
Since 1 July heating degree days 1017 1132  
Cooling Degree Days 0 0  
Month to date cooling degree days 0 0  
Year to date cooling degree days 184 169  
Moisture  
Dew Point 30 °F    
Average Humidity 70    
Maximum Humidity 100    
Minimum Humidity 39    
Precipitation  
Precipitation 0.00 in 0.02 in 0.25 in (1987)
Month to date precipitation T 0.05  
Year to date precipitation 6.92 8.30  
Sea Level Pressure  
Sea Level Pressure 30.13 in    
Wind  
Wind Speed 5 mph (SE)    
Max Wind Speed 15 mph    
Max Gust Speed 18 mph    
Visibility 8 miles    
Events      
T = Trace of Precipitation, MM = Missing Value Source: NWS Daily Summary

Daily Weather History Graph

Daily Weather History Graph

Search for Another Location

Airport or City:

Trip Planner

Search our weather history database for the weather conditions in past years. The results will help you decide how hot, cold, wet, or windy it might be!

Date:

Astronomy

Nov. 02, 2012 Rise Set
Actual Time 7:31 AM PDT 5:37 PM PDT
Civil Twilight 7:00 AM PDT 6:08 PM PDT
Nautical Twilight 6:26 AM PDT 6:42 PM PDT
Astronomical Twilight 5:52 AM PDT 7:16 PM PDT
Moon 8:23 PM PDT (11/2) 11:00 AM PDT (11/2)
Length of Visible Light 11h 07m
Length of Day
10h 05m
Waning Gibbous, 86% of the Moon is Illuminated
Nov 2
Waning Gibbous
Nov 6
Last Quarter
Nov 13
New
Nov 20
First Quarter
Nov 28
Full

Hourly Weather History & Observations

Time (PDT) Temp. Windchill Dew Point Humidity Pressure Visibility Wind Dir Wind Speed Gust Speed Precip Events Conditions
12:53 AM 30.9 °F - 30.0 °F 96% 30.12 in 10.0 mi Calm Calm - N/A   Clear
1:51 AM 30.2 °F - 28.4 °F 93% 30.10 in 1.8 mi Calm Calm - N/A   Clear
1:53 AM 30.0 °F - 28.9 °F 96% 30.13 in 1.5 mi Calm Calm - N/A   Clear
2:12 AM 28.4 °F - 26.6 °F 93% 30.11 in 4.0 mi Calm Calm - N/A   Clear
2:53 AM 30.0 °F - 28.0 °F 92% 30.14 in 10.0 mi Calm Calm - N/A   Clear
3:13 AM 26.6 °F - 24.8 °F 93% 30.10 in 7.0 mi Calm Calm - N/A   Scattered Clouds
3:30 AM 26.6 °F 22.6 °F 24.8 °F 93% 30.09 in 2.5 mi ENE 3.5 mph - N/A   Scattered Clouds
3:38 AM 26.6 °F - 24.8 °F 93% 30.10 in 10.0 mi Calm Calm - N/A   Partly Cloudy
3:53 AM 27.0 °F - 25.0 °F 92% 30.13 in 10.0 mi Calm Calm - N/A   Scattered Clouds
4:53 AM 27.0 °F - 25.0 °F 92% 30.15 in 10.0 mi Calm Calm - N/A   Clear
5:19 AM 26.6 °F - 24.8 °F 93% 30.12 in 1.8 mi Calm Calm - N/A   Clear
5:31 AM 26.6 °F - 24.8 °F 93% 30.12 in 2.0 mi Calm Calm - N/A   Partly Cloudy
5:44 AM 26.6 °F - 26.6 °F 100% 30.12 in 6.0 mi Calm Calm - N/A   Partly Cloudy
5:53 AM 27.0 °F 23.0 °F 26.1 °F 96% 30.17 in 6.0 mi NW 3.5 mph - N/A   Partly Cloudy
6:53 AM 30.9 °F 27.5 °F 28.9 °F 92% 30.17 in 10.0 mi SSW 3.5 mph - N/A   Clear
7:53 AM 25.0 °F - 25.0 °F 100% 30.21 in 10.0 mi Calm Calm - N/A   Clear
8:53 AM 33.1 °F - 30.9 °F 92% 30.22 in 10.0 mi Calm Calm - N/A   Clear
9:53 AM 39.0 °F - 36.0 °F 89% 30.20 in 10.0 mi Calm Calm - N/A   Clear
10:53 AM 45.0 °F 43.5 °F 37.0 °F 74% 30.19 in 10.0 mi South 3.5 mph - N/A   Clear
11:53 AM 51.1 °F - 39.0 °F 63% 30.16 in 10.0 mi Calm Calm - N/A   Clear
12:53 PM 55.0 °F - 37.9 °F 53% 30.14 in 10.0 mi East 9.2 mph - N/A   Clear
1:53 PM 57.0 °F - 32.0 °F 39% 30.12 in 10.0 mi SSE 8.1 mph - N/A   Scattered Clouds
2:53 PM 57.9 °F - 33.1 °F 39% 30.10 in 10.0 mi SE 11.5 mph - N/A   Clear
3:53 PM 57.0 °F - 34.0 °F 42% 30.10 in 10.0 mi ESE 12.7 mph - N/A   Clear
4:53 PM 52.0 °F - 34.0 °F 50% 30.11 in 10.0 mi ESE 9.2 mph - N/A   Clear
5:53 PM 48.0 °F - 35.1 °F 61% 30.12 in 10.0 mi East 10.4 mph - N/A   Clear
6:53 PM 44.1 °F 40.8 °F 34.0 °F 68% 30.13 in 10.0 mi SE 5.8 mph - N/A   Clear
7:53 PM 46.9 °F - 34.0 °F 61% 30.14 in 10.0 mi South 3.5 mph - N/A   Clear
8:53 PM 43.0 °F 39.5 °F 34.0 °F 71% 30.14 in 10.0 mi SE 5.8 mph - N/A   Clear
9:53 PM 43.0 °F 38.2 °F 33.1 °F 68% 30.13 in 10.0 mi ESE 8.1 mph - N/A   Clear
10:53 PM 44.1 °F 42.5 °F 34.0 °F 68% 30.12 in 10.0 mi ESE 3.5 mph - N/A   Mostly Cloudy
11:53 PM 42.1 °F 40.2 °F 33.1 °F 70% 30.10 in 10.0 mi ESE 3.5 mph - N/A   Clear